Location: Brede
(50.9167°N, 0.6000°E)
Time: 03:32:52
(UTC+00:00)

Cosmos 1455 Rocket - Pass Details

Date: 08 August 2020
Orbit: 604 x 631 km, 82.5° (Epoch: 27 September)

Event Time Altitude Azimuth Distance (km) Brightness Sun altitude
Exits shadow 03:28:27 13° 228° (SW) 1,821 4.8 -9.5°
Maximum altitude 03:31:57 33° 289° (WNW) 1,067 4.0 -9.1°
Drops below altitude 10° 03:36:00 10° 354° (N) 2,019 6.2 -8.6°
Sets 03:38:27 0° 4° (N) 2,934 7.2 -8.3°
